Terminal Aerodrome Forecast
Issued by NWS Charleston, WV

Current Version | Previous Version | Graphics & Text | Print | Product List | Glossary On
Versions: 1 2 3 4 5 6 7 8 9 10 11 12 13 14 15 16 17 18 19 20 21 22
000
FTUS41 KRLX 031504 AAA
TAFCRW
TAF AMD
KCRW 031504Z 0315/0412 00000KT P6SM SCT040 BKN140
     FM031800 VRB03KT P6SM VCTS BKN035CB
     FM032200 VRB03KT 6SM HZ VCTS SCT035CB
     FM040000 00000KT P6SM SCT035
     FM040200 00000KT 5SM BR SCT045=

USA.gov is the U.S. government's official web portal to all federal, state and local government web resources and services.